Showing default

UMBRA-12, 67371

Orbit data source: Space-Track

UMBRA-12, 67371 is a payload satellite owned by Umbra Labs (US) in SSO that was launched on Sun, 11 Jan 2026 UTC via an FALCON 9 launch vehicle from the Air Force Western Test Range (AFWTR). Payload-class satellites include a variety of spacecraft equipped with specific instruments for various scientific and technological missions. These include communications satellites like Starlink; space stations such as the ISS; scientific satellites like the Hubble; Earth observation satellites from companies like Planet Labs, Umbra, and HawkEye 360; GPS; miniature CubeSats for education and research; and military/defense satellites.

Loading next visibility...
Identifier
67371, 2026-004J
Orbit
SSO
Country
Flag of USUS
Related business
Manufacturer
Umbra Labs
Mission
Operational Commercial Radar Imaging
Bus & Motor
ESPASAT?, Unknown motor
Mass
84 kg wet, 79 kg dry
Launch date (UTC)
2026-01-11 (8 months ago)
Launch vehicle
FALCON 9
Launch site
Air Force Western Test Range (AFWTR)
Object type
Payload
Rocket body
Debris
Shape & HBR
Box + 2 Pan + 1 Dish, 2.0 m
Radar Cross Section
1.219 m², Large (>1 m²)

Expand to show TLE details & history
Last TLE update: 1 day ago

TLE from 1 day ago
0 UMBRA-12
1 67371U 26004J   26263.48901206  .00003020  00000-0  31886-3 0  9999
2 67371  97.8087 261.0160 0006136 161.7649 198.3790 14.90000028 37495
Epoch: 2026-09-20T11:44Z
TLE epoch observation values (Epoch: 2026-09-20T11:44:10.641Z)
Latitude
0.00003°
Longitude
85.58919°
Altitude
605.037 km
Speed
7.555 km/s
True Right ascension
17h 24m 03s
True Declination
0° 00' 00"
Sunlit
Object was in daylight at epoch
Visualization orbit readout
Latitude
Unknown
Longitude
Unknown
Altitude
Unknown
Speed
Unknown
Apparent Right ascension
Unknown
Apparent Declination
Unknown
Sunlit
N/A
Visualization observer readout
Local Sidereal Time
12:36:00
Azimuth
Unknown
Elevation
Unknown
Doppler factor
Unknown
Orbital elements
Apogee altitude
599.238 km
Perigee altitude
590.68 km
Semi-major axis
6,973.096 km
Eccentricity
0.00061
Inclination
97.8087°
RAAN
261.016°
Arg. of periapsis
161.7649°
True anomaly
198.35685°
Mean anomaly
198.379°
Eccentric anomaly
198.36792°
Mean motion
3.72739 °/min
Orbital period
96.58 mins
BSTAR
0.00031886
Loading maneuver chart data...
Computing Atmospheric mass density...
Loading historical data...
Loading historical data...
Loading historical data...
Loading historical data...
Loading historical data...
Loading historical data...
Loading historical data...

Documentation

Showing up to 5 results
|